TimeMDT,TemperatureF,Dew PointF,Humidity,Sea Level PressureIn,VisibilityMPH,Wind Direction,Wind SpeedMPH,Gust SpeedMPH,PrecipitationIn,Events,Conditions,WindDirDegrees,DateUTC
12:15 AM,80.6,53.6,39,30.03,10.0,West,8.1,-,N/A,,Clear,270,2013-06-30 06:15:00
12:35 AM,82.4,51.8,35,30.04,10.0,WNW,6.9,-,N/A,,Clear,300,2013-06-30 06:35:00
12:55 AM,80.6,48.2,32,30.05,10.0,SSE,5.8,-,N/A,,Clear,150,2013-06-30 06:55:00
1:15 AM,82.4,48.2,30,30.04,10.0,SE,5.8,-,N/A,,Clear,140,2013-06-30 07:15:00
1:35 AM,82.4,48.2,30,30.06,10.0,Calm,Calm,-,N/A,,Clear,0,2013-06-30 07:35:00
1:55 AM,82.4,51.8,35,30.08,10.0,NW,3.5,-,N/A,Thunderstorm,Thunderstorm,320,2013-06-30 07:55:00
2:15 AM,78.8,55.4,44,30.07,10.0,NNE,11.5,-,N/A,,Mostly Cloudy,30,2013-06-30 08:15:00
2:35 AM,80.6,48.2,32,30.05,10.0,East,12.7,-,N/A,,Scattered Clouds,90,2013-06-30 08:35:00
2:55 AM,82.4,50.0,32,30.05,10.0,South,12.7,17.3,N/A,,Partly Cloudy,170,2013-06-30 08:55:00
3:15 AM,80.6,48.2,32,30.04,10.0,SSE,11.5,-,N/A,,Clear,150,2013-06-30 09:15:00
3:35 AM,78.8,48.2,34,30.06,10.0,ENE,8.1,-,N/A,,Clear,60,2013-06-30 09:35:00
3:55 AM,80.6,46.4,30,30.07,10.0,SSE,5.8,-,N/A,,Clear,160,2013-06-30 09:55:00
4:15 AM,80.6,46.4,30,30.07,10.0,NNE,6.9,-,N/A,,Clear,30,2013-06-30 10:15:00
4:35 AM,77.0,51.8,41,30.05,10.0,NW,11.5,-,N/A,,Clear,320,2013-06-30 10:35:00
4:55 AM,78.8,48.2,34,30.05,10.0,North,5.8,-,N/A,,Clear,10,2013-06-30 10:55:00
5:15 AM,75.2,46.4,36,30.07,10.0,ENE,8.1,-,N/A,,Clear,60,2013-06-30 11:15:00
5:35 AM,73.4,48.2,41,30.06,10.0,Calm,Calm,-,N/A,,Clear,0,2013-06-30 11:35:00
5:55 AM,73.4,51.8,47,30.07,10.0,Calm,Calm,-,N/A,,Clear,0,2013-06-30 11:55:00
6:15 AM,71.6,50.0,46,30.07,10.0,West,3.5,-,N/A,,Clear,270,2013-06-30 12:15:00
6:35 AM,73.4,46.4,38,30.09,10.0,WNW,6.9,-,N/A,,Clear,300,2013-06-30 12:35:00
6:50 AM,78.8,44.6,30,30.09,15.0,Variable,3.5,-,N/A,,Scattered Clouds,0,2013-06-30 12:50:00
7:47 AM,77.0,48.2,36,30.10,15.0,Variable,5.8,-,N/A,,Scattered Clouds,0,2013-06-30 13:47:00
8:57 AM,82.4,48.2,30,30.12,15.0,Variable,4.6,-,N/A,,Partly Cloudy,0,2013-06-30 14:57:00
9:50 AM,82.4,53.6,37,30.12,15.0,Variable,4.6,-,N/A,,Partly Cloudy,0,2013-06-30 15:50:00
10:48 AM,84.2,48.2,29,30.12,15.0,Calm,Calm,-,N/A,,Partly Cloudy,0,2013-06-30 16:48:00
11:51 AM,87.8,48.2,25,30.11,15.0,SSW,5.8,-,N/A,,Partly Cloudy,210,2013-06-30 17:51:00
12:51 PM,89.6,50.0,26,30.10,15.0,Calm,Calm,-,N/A,,Partly Cloudy,0,2013-06-30 18:51:00
1:58 PM,93.2,50.0,23,30.07,15.0,WNW,6.9,-,N/A,,Partly Cloudy,300,2013-06-30 19:58:00
2:47 PM,93.2,51.8,24,30.05,15.0,WSW,5.8,-,N/A,,Partly Cloudy,250,2013-06-30 20:47:00
3:50 PM,95.0,53.6,25,30.03,15.0,Variable,5.8,-,N/A,,Mostly Cloudy,0,2013-06-30 21:50:00
4:50 PM,98.6,55.4,24,30.01,15.0,NW,13.8,-,N/A,,Mostly Cloudy,310,2013-06-30 22:50:00
5:50 PM,96.8,60.8,30,30.00,15.0,NW,13.8,-,N/A,,Scattered Clouds,310,2013-06-30 23:50:00
6:50 PM,93.2,51.8,24,29.99,15.0,NW,13.8,-,N/A,,Scattered Clouds,310,2013-07-01 00:50:00
7:50 PM,91.4,53.6,28,29.99,15.0,NW,13.8,-,N/A,,Scattered Clouds,310,2013-07-01 01:50:00
8:50 PM,84.2,53.6,35,30.00,15.0,WNW,11.5,-,N/A,,Partly Cloudy,300,2013-07-01 02:50:00
9:15 PM,84.2,55.4,37,30.00,10.0,NW,10.4,-,N/A,,Clear,310,2013-07-01 03:15:00
9:35 PM,82.4,55.4,39,30.01,10.0,NW,12.7,-,N/A,,Clear,310,2013-07-01 03:35:00
9:55 PM,80.6,55.4,42,30.02,10.0,North,9.2,-,N/A,,Clear,360,2013-07-01 03:55:00
10:15 PM,80.6,51.8,37,30.03,10.0,NNE,5.8,-,N/A,,Clear,20,2013-07-01 04:15:00
10:35 PM,80.6,46.4,30,30.04,10.0,NE,6.9,-,N/A,,Clear,40,2013-07-01 04:35:00
10:55 PM,80.6,46.4,30,30.04,10.0,South,4.6,-,N/A,,Clear,170,2013-07-01 04:55:00
11:15 PM,78.8,51.8,39,30.05,10.0,ESE,4.6,-,N/A,,Clear,110,2013-07-01 05:15:00
11:35 PM,75.2,51.8,44,30.05,10.0,SSE,3.5,-,N/A,,Clear,160,2013-07-01 05:35:00
11:55 PM,73.4,50.0,44,30.06,10.0,Calm,Calm,-,N/A,,Clear,0,2013-07-01 05:55:00